,,,PA_Meas_PMT16A,,PR_Meas_QMR101_102,,RH_Meas_QMH101,,SR_Meas_QMS101,,TA_Meas_QMH101,,GenWind,,GenWind,
date,time,status,PA,status,PR,status,RH,status,SR,status,TA,status,DirAvg,status,SpdAvg,
2012-07-31, 08:13:04,VALID,1005.71,VALID,0,VALID,91.1346,VALID,152.503,VALID,24.7919,VALID,53,VALID,1.26836,
2012-07-31, 08:14:04,VALID,1005.67,VALID,0,VALID,91.1041,VALID,160.247,VALID,24.7724,VALID,15,VALID,1.66914,
2012-07-31, 08:15:04,VALID,1005.68,VALID,0,VALID,91.127,VALID,167.338,VALID,24.8113,VALID,39,VALID,1.36055,
2012-07-31, 08:16:04,VALID,1005.67,VALID,0,VALID,91.2796,VALID,174.837,VALID,24.8113,VALID,75,VALID,0.789844,
2012-07-31, 08:17:04,VALID,1005.65,VALID,0,VALID,90.86,VALID,182.091,VALID,24.8113,VALID,81,VALID,2.20078,
2012-07-31, 08:18:04,VALID,1005.6,VALID,0,VALID,90.9134,VALID,189.427,VALID,24.8503,VALID,11,VALID,2.00938,
2012-07-31, 08:19:04,VALID,1005.66,VALID,0,VALID,90.9439,VALID,197.333,VALID,24.8892,VALID,60,VALID,1.14727,
2012-07-31, 08:20:04,VALID,1005.7,VALID,0,VALID,90.9363,VALID,205.402,VALID,24.9087,VALID,45,VALID,1.11211,
2012-07-31, 08:21:04,VALID,1005.72,VALID,0,VALID,90.776,VALID,212.983,VALID,24.9476,VALID,19,VALID,1.7957,
2012-07-31, 08:22:04,VALID,1005.78,VALID,0,VALID,91.5542,VALID,220.971,VALID,25.0255,VALID,47,VALID,0.583594,
2012-07-31, 08:23:04,VALID,1005.81,VALID,0,VALID,91.4321,VALID,230.67,VALID,25.0839,VALID,33,VALID,0.9625,
2012-07-31, 08:24:04,VALID,1005.81,VALID,0,VALID,90.3412,VALID,238.658,VALID,25.0644,VALID,16,VALID,1.68867,
2012-07-31, 08:25:04,VALID,1005.81,VALID,0,VALID,89.9064,VALID,246.809,VALID,25.0839,VALID,42,VALID,1.24609,
2012-07-31, 08:26:04,VALID,1005.81,VALID,0,VALID,90.1505,VALID,253.33,VALID,25.1423,VALID,338,VALID,1.23789,
2012-07-31, 08:27:04,VALID,1005.78,VALID,0,VALID,89.8758,VALID,253.248,VALID,25.1813,VALID,353,VALID,1.02852,
2012-07-31, 08:28:04,VALID,1005.8,VALID,0,VALID,89.853,VALID,251.455,VALID,25.2592,VALID,30,VALID,0.570313,
2012-07-31, 08:29:04,VALID,1005.77,VALID,0,VALID,90.1963,VALID,255.367,VALID,25.3176,VALID,73,VALID,0.680078,
2012-07-31, 08:30:04,VALID,1005.74,VALID,0,VALID,87.5795,VALID,260.829,VALID,25.2786,VALID,38,VALID,1.45313,
2012-07-31, 08:31:04,VALID,1005.72,VALID,0,VALID,86.9235,VALID,263.926,VALID,25.2786,VALID,7,VALID,0.56875,
2012-07-31, 08:32:04,VALID,1005.68,VALID,0,VALID,86.9158,VALID,271.017,VALID,25.3176,VALID,13,VALID,1.50117,
2012-07-31, 08:33:04,VALID,1005.68,VALID,0,VALID,88.1593,VALID,270.365,VALID,25.3351,VALID,4,VALID,0.935938,
2012-07-31, 08:34:04,VALID,1005.66,VALID,0,VALID,86.3589,VALID,268.083,VALID,25.3584,VALID,83,VALID,0.858984,
2012-07-31, 08:35:04,VALID,1005.63,VALID,0,VALID,86.8777,VALID,289.275,VALID,25.3565,VALID,98,VALID,1.21172,
2012-07-31, 08:36:04,VALID,1005.66,VALID,0,VALID,88.3043,VALID,318.863,VALID,25.4149,VALID,24,VALID,0.999219,
2012-07-31, 08:37:04,VALID,1005.61,VALID,0,VALID,85.802,VALID,370.132,VALID,25.4344,VALID,319,VALID,1.12617,
2012-07-31, 08:38:04,VALID,1005.6,VALID,0,VALID,87.4422,VALID,354.645,VALID,25.5123,VALID,326,VALID,0.566406,
2012-07-31, 08:39:04,VALID,1005.59,VALID,0,VALID,87.4727,VALID,393.444,VALID,25.6097,VALID,333,VALID,0.583203,
2012-07-31, 08:40:04,VALID,1005.6,VALID,0,VALID,88.2051,VALID,402.165,VALID,25.746,VALID,5,VALID,0.755078,
2012-07-31, 08:41:04,VALID,1005.59,VALID,0,VALID,85.9088,VALID,400.616,VALID,25.8044,VALID,351,VALID,1.10625,
2012-07-31, 08:42:04,VALID,1005.6,VALID,0,VALID,84.9094,VALID,501.198,VALID,25.9427,VALID,345,VALID,1.21992,
2012-07-31, 08:43:04,VALID,1005.62,VALID,0,VALID,84.9628,VALID,506.333,VALID,26.0381,VALID,354,VALID,0.959375,
2012-07-31, 08:44:04,VALID,1005.62,VALID,0,VALID,83.5439,VALID,435.421,VALID,26.1375,VALID,349,VALID,1.09766,
2012-07-31, 08:45:04,VALID,1005.61,VALID,0,VALID,84.0169,VALID,357.498,VALID,26.1959,VALID,226,VALID,0.300391,
2012-07-31, 08:46:04,VALID,1005.57,VALID,0,VALID,85.3138,VALID,677.339,VALID,26.3323,VALID,346,VALID,0.966406,
2012-07-31, 08:47:04,VALID,1005.59,VALID,0,VALID,83.4447,VALID,360.84,VALID,26.3518,VALID,12,VALID,0.665625,
2012-07-31, 08:48:04,VALID,1005.61,VALID,0,VALID,86.0156,VALID,330.03,VALID,26.4667,VALID,43,VALID,0.345313,
2012-07-31, 08:49:04,VALID,1005.59,VALID,0,VALID,85.1993,VALID,332.067,VALID,26.5661,VALID,43,VALID,0.334375,
2012-07-31, 08:50:04,VALID,1005.62,VALID,0,VALID,82.9336,VALID,343.397,VALID,26.5641,VALID,10,VALID,0.7,
2012-07-31, 08:51:04,VALID,1005.62,VALID,0,VALID,82.6894,VALID,341.033,VALID,26.5855,VALID,354,VALID,0.991797,
2012-07-31, 08:52:04,VALID,1005.61,VALID,0,VALID,83.9406,VALID,352.2,VALID,26.6225,VALID,111,VALID,1.34219,
2012-07-31, 08:53:04,VALID,1005.63,VALID,0,VALID,84.6272,VALID,364.263,VALID,26.605,VALID,86,VALID,0.866797,
2012-07-31, 08:54:04,VALID,1005.58,VALID,0,VALID,83.9177,VALID,355.46,VALID,26.6245,VALID,21,VALID,1.64531,
2012-07-31, 08:55:04,VALID,1005.61,VALID,0,VALID,83.9787,VALID,551.408,VALID,26.7004,VALID,142,VALID,1.08086,
2012-07-31, 08:56:04,VALID,1005.57,VALID,0,VALID,85.5045,VALID,460.199,VALID,26.8973,VALID,25,VALID,0.746094,
2012-07-31, 08:57:04,VALID,1005.55,VALID,0,VALID,82.5292,VALID,362.307,VALID,26.9947,VALID,93,VALID,0.873828,
2012-07-31, 08:58:04,VALID,1005.56,VALID,0,VALID,83.8643,VALID,352.852,VALID,27.1311,VALID,109,VALID,0.719922,
2012-07-31, 08:59:04,VALID,1005.52,VALID,0,VALID,82.7276,VALID,457.51,VALID,27.17,VALID,22,VALID,1.20742,
2012-07-31, 09:00:04,VALID,1005.52,VALID,0,VALID,82.8954,VALID,583.441,VALID,27.3454,VALID,60,VALID,1.50898,
2012-07-31, 09:01:04,VALID,1005.52,VALID,0,VALID,80.8966,VALID,881.03,VALID,27.4839,VALID,66,VALID,0.923047,
2012-07-31, 09:02:04,VALID,1005.53,VALID,0,VALID,78.9055,VALID,831.798,VALID,27.6161,VALID,107,VALID,2.13867,
2012-07-31, 09:03:04,VALID,1005.51,VALID,0,VALID,81.6748,VALID,783.627,VALID,27.6356,VALID,102,VALID,1.30117,
2012-07-31, 09:04:04,VALID,1005.49,VALID,0,VALID,77.6391,VALID,780.122,VALID,27.7546,VALID,99,VALID,1.62305,
2012-07-31, 09:05:04,VALID,1005.48,VALID,0,VALID,80.4465,VALID,697.39,VALID,27.8694,VALID,88,VALID,1.14219,
2012-07-31, 09:06:04,VALID,1005.48,VALID,0,VALID,79.2641,VALID,669.759,VALID,27.9279,VALID,108,VALID,1.73281,
2012-07-31, 09:07:04,VALID,1005.53,VALID,0,VALID,79.5082,VALID,659.489,VALID,28.0665,VALID,123,VALID,1.575,
2012-07-31, 09:08:04,VALID,1005.49,VALID,0,VALID,80.4313,VALID,668.862,VALID,28.0859,VALID,94,VALID,2.0918,
2012-07-31, 09:09:04,VALID,1005.48,VALID,0,VALID,78.1121,VALID,490.684,VALID,28.008,VALID,114,VALID,1.63594,
2012-07-31, 09:10:04,VALID,1005.45,VALID,0,VALID,78.1426,VALID,536.899,VALID,27.8716,VALID,88,VALID,1.82344,
2012-07-31, 09:11:04,VALID,1005.43,VALID,0,VALID,76.0294,VALID,552.712,VALID,27.93,VALID,128,VALID,4.13164,
2012-07-31, 09:12:04,VALID,1005.41,VALID,0,VALID,75.2818,VALID,482.614,VALID,27.8131,VALID,124,VALID,2.6707,
2012-07-31, 09:13:04,VALID,1005.39,VALID,0,VALID,76.4566,VALID,441.452,VALID,27.8542,VALID,109,VALID,2.23438,
2012-07-31, 09:14:04,VALID,1005.37,VALID,0,VALID,77.2577,VALID,418.141,VALID,27.8911,VALID,122,VALID,2.58867,
2012-07-31, 09:15:04,VALID,1005.39,VALID,0,VALID,76.0294,VALID,448.544,VALID,27.9105,VALID,105,VALID,2.41523,
2012-07-31, 09:16:04,VALID,1005.35,VALID,0,VALID,74.5799,VALID,495.248,VALID,27.8911,VALID,112,VALID,1.84336,
2012-07-31, 09:17:04,VALID,1005.35,VALID,0,VALID,75.7777,VALID,467.128,VALID,27.8911,VALID,88,VALID,2.10625,
2012-07-31, 09:18:04,VALID,1005.34,VALID,0,VALID,76.8152,VALID,442.349,VALID,27.9906,VALID,114,VALID,2.38359,
2012-07-31, 09:19:04,VALID,1005.37,VALID,0,VALID,74.702,VALID,477.887,VALID,27.9711,VALID,95,VALID,2.01719,
2012-07-31, 09:20:04,VALID,1005.32,VALID,0,VALID,74.3358,VALID,457.102,VALID,27.9321,VALID,82,VALID,2.13516,
2012-07-31, 09:21:04,VALID,1005.36,VALID,0,VALID,74.3434,VALID,268.653,VALID,27.8521,VALID,101,VALID,1.86992,
2012-07-31, 09:22:04,VALID,1005.32,VALID,0,VALID,74.5113,VALID,394.096,VALID,27.8953,VALID,75,VALID,1.13984,
2012-07-31, 09:23:04,VALID,1005.35,VALID,0,VALID,75.5564,VALID,406.403,VALID,27.9711,VALID,78,VALID,0.669922,
2012-07-31, 09:24:04,VALID,1005.35,VALID,0,VALID,76.2659,VALID,325.221,VALID,28.0665,VALID,81,VALID,1.02852,
2012-07-31, 09:25:04,VALID,1005.36,VALID,0,VALID,74.0383,VALID,608.79,VALID,28.0859,VALID,67,VALID,1.95234,
2012-07-31, 09:26:04,VALID,1005.33,VALID,0,VALID,74.7401,VALID,658.021,VALID,28.166,VALID,90,VALID,1.59687,
2012-07-31, 09:27:04,VALID,1005.31,VALID,0,VALID,75.7166,VALID,675.872,VALID,28.244,VALID,104,VALID,1.74648,
2012-07-31, 09:28:04,VALID,1005.29,VALID,0,VALID,73.6645,VALID,382.847,VALID,28.322,VALID,144,VALID,1.70703,
2012-07-31, 09:29:04,VALID,1005.3,VALID,0,VALID,71.9632,VALID,438.355,VALID,28.3025,VALID,98,VALID,1.02148,
2012-07-31, 09:30:04,VALID,1005.26,VALID,0,VALID,74.6867,VALID,703.585,VALID,28.4563,VALID,92,VALID,0.802344,
2012-07-31, 09:31:04,VALID,1005.24,VALID,0,VALID,72.2608,VALID,726.733,VALID,28.6707,VALID,88,VALID,2.76289,
2012-07-31, 09:32:04,VALID,1005.22,VALID,0,VALID,70.857,VALID,595.341,VALID,28.6924,VALID,92,VALID,1.59063,
2012-07-31, 09:33:04,VALID,1005.18,VALID,0,VALID,72.0471,VALID,807.59,VALID,28.8678,VALID,24,VALID,0.339453,
2012-07-31, 09:34:04,VALID,1005.16,VALID,0,VALID,73.7179,VALID,418.304,VALID,29.0433,VALID,132,VALID,0.941016,
2012-07-31, 09:35:04,VALID,1005.14,VALID,0,VALID,71.0249,VALID,288.379,VALID,29.1213,VALID,125,VALID,1.78711,
2012-07-31, 09:36:04,VALID,1005.12,VALID,0,VALID,71.6199,VALID,913.796,VALID,28.9068,VALID,86,VALID,1.5293,
2012-07-31, 09:37:04,VALID,1005.13,VALID,0,VALID,71.3758,VALID,776.291,VALID,28.9848,VALID,100,VALID,1.08555,
2012-07-31, 09:38:04,VALID,1005.14,VALID,0,VALID,70.5061,VALID,864.891,VALID,29.0628,VALID,137,VALID,2.06289,
2012-07-31, 09:39:04,VALID,1005.12,VALID,0,VALID,74.3053,VALID,902.141,VALID,29.0628,VALID,155,VALID,1.35469,
2012-07-31, 09:40:04,VALID,1005.12,VALID,0,VALID,75.6251,VALID,834.651,VALID,29.1798,VALID,86,VALID,1.77656,
2012-07-31, 09:41:04,VALID,1005.1,VALID,0,VALID,71.3987,VALID,926.838,VALID,29.4333,VALID,30,VALID,1.14883,
2012-07-31, 09:42:04,VALID,1005.09,VALID,0,VALID,73.817,VALID,692.989,VALID,29.7453,VALID,135,VALID,1.60859,
2012-07-31, 09:43:04,VALID,1005.08,VALID,0,VALID,69.11,VALID,729.912,VALID,29.4115,VALID,121,VALID,1.34258,
2012-07-31, 09:44:04,VALID,1005.06,VALID,0,VALID,71.5665,VALID,920.562,VALID,29.4333,VALID,124,VALID,1.00625,
2012-07-31, 09:45:04,VALID,1005.06,VALID,0,VALID,68.6828,VALID,888.04,VALID,29.5675,VALID,105,VALID,1.83828,
2012-07-31, 09:46:04,VALID,1005.06,VALID,0,VALID,67.9123,VALID,756.484,VALID,29.6283,VALID,97,VALID,1.43164,
2012-07-31, 09:47:04,VALID,1005.04,VALID,0,VALID,67.7826,VALID,302.969,VALID,29.743,VALID,118,VALID,1.72852,
2012-07-31, 09:48:04,VALID,1005.05,VALID,0,VALID,65.5321,VALID,657.858,VALID,29.5675,VALID,125,VALID,2.81875,
2012-07-31, 09:49:04,VALID,1005.02,VALID,0,VALID,66.684,VALID,916.568,VALID,29.4895,VALID,134,VALID,2.00859,
2012-07-31, 09:50:04,VALID,1004.97,VALID,0,VALID,61.1836,VALID,919.258,VALID,29.6088,VALID,142,VALID,3.1875,
2012-07-31, 09:51:04,VALID,1004.96,VALID,0,VALID,62.0304,VALID,935.885,VALID,29.5698,VALID,136,VALID,2.11562,
2012-07-31, 09:52:04,VALID,1004.97,VALID,0,VALID,64.5632,VALID,422.95,VALID,29.3748,VALID,136,VALID,3.74062,
2012-07-31, 09:53:04,VALID,1004.93,VALID,0,VALID,61.5422,VALID,629.004,VALID,29.2188,VALID,117,VALID,2.65703,
2012-07-31, 09:54:04,VALID,1004.86,VALID,0,VALID,64.0292,VALID,818.676,VALID,29.1408,VALID,104,VALID,1.78711,
2012-07-31, 09:55:04,VALID,1004.82,VALID,0,VALID,61.8702,VALID,882.253,VALID,29.3748,VALID,111,VALID,1.85859,
2012-07-31, 09:56:04,VALID,1004.77,VALID,0,VALID,59.0628,VALID,536.492,VALID,29.4138,VALID,140,VALID,2.89102,
2012-07-31, 09:57:04,VALID,1004.75,VALID,0,VALID,61.2981,VALID,875.406,VALID,29.4723,VALID,102,VALID,2.66914,
2012-07-31, 09:58:04,VALID,1004.73,VALID,0,VALID,60.4741,VALID,453.434,VALID,29.509,VALID,116,VALID,2.78594,
2012-07-31, 09:59:04,VALID,1004.68,VALID,0,VALID,59.6807,VALID,232.463,VALID,29.3163,VALID,87,VALID,2.31367,
2012-07-31, 10:00:04,VALID,1004.64,VALID,0,VALID,63.19,VALID,351.222,VALID,29.1603,VALID,110,VALID,1.46797,
2012-07-31, 10:01:04,VALID,1004.66,VALID,0,VALID,62.6102,VALID,865.299,VALID,29.182,VALID,101,VALID,2.58984,
2012-07-31, 10:02:04,VALID,1004.7,VALID,0,VALID,66.2111,VALID,845.329,VALID,29.2188,VALID,101,VALID,2.05195,
2012-07-31, 10:03:04,VALID,1004.69,VALID,0,VALID,61.3515,VALID,836.2,VALID,29.2773,VALID,109,VALID,2.79844,
2012-07-31, 10:04:04,VALID,1004.71,VALID,0,VALID,60.6115,VALID,836.689,VALID,29.2968,VALID,109,VALID,3.27148,
2012-07-31, 10:05:04,VALID,1004.75,VALID,0,VALID,61.382,VALID,852.746,VALID,29.3748,VALID,92,VALID,2.01953,
2012-07-31, 10:06:04,VALID,1004.74,VALID,0,VALID,63.2282,VALID,890.974,VALID,29.4745,VALID,84,VALID,1.47773,
2012-07-31, 10:07:04,VALID,1004.81,VALID,0,VALID,61.1684,VALID,478.783,VALID,29.4918,VALID,87,VALID,3.14961,
2012-07-31, 10:08:04,VALID,1004.78,VALID,0,VALID,59.9325,VALID,300.768,VALID,29.3553,VALID,104,VALID,2.5918,
2012-07-31, 10:09:04,VALID,1004.78,VALID,0,VALID,62.3203,VALID,355.949,VALID,29.2383,VALID,95,VALID,2.13711,
2012-07-31, 10:10:04,VALID,1004.79,VALID,0,VALID,62.6102,VALID,330.845,VALID,29.1213,VALID,92,VALID,2.3543,
2012-07-31, 10:11:04,VALID,1004.77,VALID,0,VALID,62.7018,VALID,447.891,VALID,28.9458,VALID,99,VALID,2.70273,
2012-07-31, 10:12:04,VALID,1004.79,VALID,0,VALID,64.8989,VALID,1001.91,VALID,28.987,VALID,107,VALID,1.65625,
2012-07-31, 10:13:04,VALID,1004.76,VALID,0,VALID,64.8607,VALID,834.651,VALID,29.2773,VALID,120,VALID,1.98477,
2012-07-31, 10:14:04,VALID,1004.75,VALID,0,VALID,64.2962,VALID,400.942,VALID,29.5285,VALID,97,VALID,1.17617,
2012-07-31, 10:15:04,VALID,1004.74,VALID,0,VALID,62.1296,VALID,469.491,VALID,29.5285,VALID,88,VALID,1.33555,
2012-07-31, 10:16:04,VALID,1004.75,VALID,0,VALID,65.2422,VALID,851.768,VALID,29.509,VALID,128,VALID,1.80664,
2012-07-31, 10:17:04,VALID,1004.81,VALID,0,VALID,64.8684,VALID,419.363,VALID,29.7843,VALID,147,VALID,1.5918,
2012-07-31, 10:18:04,VALID,1004.82,VALID,0,VALID,63.3655,VALID,495.819,VALID,29.821,VALID,92,VALID,2.00469,
2012-07-31, 10:19:04,VALID,1004.8,VALID,0,VALID,65.3108,VALID,907.439,VALID,29.9013,VALID,15,VALID,1.28398,
2012-07-31, 10:20:04,VALID,1004.8,VALID,0,VALID,65.2498,VALID,805.308,VALID,30.0963,VALID,99,VALID,0.983203,
2012-07-31, 10:21:04,VALID,1004.84,VALID,0,VALID,63.0069,VALID,795.609,VALID,30.1525,VALID,116,VALID,2.37344,
2012-07-31, 10:22:04,VALID,1004.78,VALID,0,VALID,63.0069,VALID,836.689,VALID,30.0183,VALID,104,VALID,2.50078,
2012-07-31, 10:23:04,VALID,1004.78,VALID,0,VALID,63.1976,VALID,740.019,VALID,30.0378,VALID,97,VALID,2.5375,
2012-07-31, 10:24:04,VALID,1004.73,VALID,0,VALID,65.349,VALID,711.084,VALID,29.9988,VALID,81,VALID,1.66484,
2012-07-31, 10:25:04,VALID,1004.67,VALID,0,VALID,62.9383,VALID,708.394,VALID,29.9208,VALID,119,VALID,3.11953,
2012-07-31, 10:26:04,VALID,1004.73,VALID,0,VALID,66.2034,VALID,750.86,VALID,29.8623,VALID,96,VALID,2.92656,
2012-07-31, 10:27:04,VALID,1004.71,VALID,0,VALID,66.4704,VALID,795.445,VALID,29.8233,VALID,111,VALID,2.51055,
2012-07-31, 10:28:04,VALID,1004.73,VALID,0,VALID,67.8513,VALID,783.219,VALID,29.9208,VALID,71,VALID,1.80977,
2012-07-31, 10:29:04,VALID,1004.7,VALID,0,VALID,64.9675,VALID,823.566,VALID,30.1743,VALID,92,VALID,1.70234,
2012-07-31, 10:30:04,VALID,1004.79,VALID,0,VALID,63.1442,VALID,896.761,VALID,30.3671,VALID,81,VALID,2.08047,
2012-07-31, 10:31:04,VALID,1004.72,VALID,0,VALID,63.0069,VALID,984.057,VALID,30.3281,VALID,92,VALID,1.55078,
2012-07-31, 10:32:04,VALID,1004.7,VALID,0,VALID,64.1284,VALID,1027.66,VALID,30.3499,VALID,115,VALID,2.36836,
2012-07-31, 10:33:04,VALID,1004.67,VALID,0,VALID,64.4793,VALID,1062.55,VALID,30.2718,VALID,133,VALID,2.69336,
2012-07-31, 10:34:04,VALID,1004.66,VALID,0,VALID,65.6923,VALID,1095.64,VALID,30.1938,VALID,122,VALID,2.64961,
2012-07-31, 10:35:04,VALID,1004.68,VALID,0,VALID,65.2269,VALID,915.508,VALID,30.25,VALID,146,VALID,2.31289,
2012-07-31, 10:36:04,VALID,1004.7,VALID,0,VALID,64.0521,VALID,582.789,VALID,30.1938,VALID,103,VALID,2.68555,
2012-07-31, 10:37:04,VALID,1004.65,VALID,0,VALID,63.6783,VALID,538.04,VALID,30.1938,VALID,75,VALID,3.02227,
2012-07-31, 10:38:04,VALID,1004.62,VALID,0,VALID,64.9752,VALID,513.832,VALID,29.9965,VALID,146,VALID,2.51563,
2012-07-31, 10:39:04,VALID,1004.58,VALID,0,VALID,66.3941,VALID,558.988,VALID,30.0183,VALID,151,VALID,1.88633,
2012-07-31, 10:40:04,VALID,1004.58,VALID,0,VALID,62.5797,VALID,617.593,VALID,29.9988,VALID,120,VALID,2.5832,
2012-07-31, 10:41:04,VALID,1004.53,VALID,0,VALID,64.0444,VALID,451.396,VALID,29.8038,VALID,127,VALID,1.65,
2012-07-31, 10:42:04,VALID,1004.43,VALID,0,VALID,66.0661,VALID,524.999,VALID,29.743,VALID,145,VALID,1.56797,
2012-07-31, 10:43:04,VALID,1004.5,VALID,0,VALID,65.8754,VALID,827.56,VALID,29.8428,VALID,98,VALID,2.26406,
2012-07-31, 10:44:04,VALID,1004.42,VALID,0,VALID,67.424,VALID,632.754,VALID,29.8818,VALID,108,VALID,2.30117,
2012-07-31, 10:45:04,VALID,1004.44,VALID,0,VALID,64.8607,VALID,842.802,VALID,29.8818,VALID,128,VALID,3.06836,
2012-07-31, 10:46:04,VALID,1004.46,VALID,0,VALID,65.9517,VALID,1076.16,VALID,29.9403,VALID,102,VALID,1.87227,
2012-07-31, 10:47:04,VALID,1004.41,VALID,0,VALID,66.4552,VALID,1063.45,VALID,29.9575,VALID,114,VALID,1.57656,
2012-07-31, 10:48:04,VALID,1004.4,VALID,0,VALID,63.129,VALID,1011.85,VALID,30.094,VALID,122,VALID,1.36016,
2012-07-31, 10:49:04,VALID,1004.37,VALID,0,VALID,64.2657,VALID,1008.43,VALID,30.1158,VALID,140,VALID,2.31172,
2012-07-31, 10:50:04,VALID,1004.38,VALID,0,VALID,70.0636,VALID,993.594,VALID,30.3304,VALID,170,VALID,1.75312,
2012-07-31, 10:51:04,VALID,1004.39,VALID,0,VALID,66.2492,VALID,1012.42,VALID,30.3304,VALID,95,VALID,2.05898,
2012-07-31, 10:52:04,VALID,1004.41,VALID,0,VALID,64.2809,VALID,998.566,VALID,30.5254,VALID,108,VALID,1.50742,
2012-07-31, 10:53:04,VALID,1004.42,VALID,0,VALID,61.9923,VALID,876.221,VALID,30.5449,VALID,78,VALID,2.54766,
2012-07-31, 10:54:04,VALID,1004.42,VALID,0,VALID,62.8467,VALID,838.971,VALID,30.3866,VALID,126,VALID,2.91133,
2012-07-31, 10:55:04,VALID,1004.47,VALID,0,VALID,61.8397,VALID,755.262,VALID,30.2523,VALID,118,VALID,2.95391,
2012-07-31, 10:56:04,VALID,1004.44,VALID,0,VALID,63.6249,VALID,659.407,VALID,30.0573,VALID,96,VALID,1.75469,
2012-07-31, 10:57:04,VALID,1004.42,VALID,0,VALID,62.3814,VALID,514.403,VALID,29.9793,VALID,80,VALID,2.01836,
2012-07-31, 10:58:04,VALID,1004.42,VALID,0,VALID,62.6941,VALID,398.986,VALID,29.9988,VALID,64,VALID,2.00195,
2012-07-31, 10:59:04,VALID,1004.39,VALID,0,VALID,61.115,VALID,319.107,VALID,29.9208,VALID,101,VALID,2.90313,
2012-07-31, 11:00:04,VALID,1004.46,VALID,0,VALID,62.1754,VALID,304.599,VALID,29.8038,VALID,86,VALID,2.65937,
2012-07-31, 11:01:04,VALID,1004.38,VALID,0,VALID,64.6624,VALID,292.291,VALID,29.6455,VALID,46,VALID,1.50586,
2012-07-31, 11:02:04,VALID,1004.46,VALID,0,VALID,63.9224,VALID,278.434,VALID,29.587,VALID,61,VALID,2.41836,
2012-07-31, 11:03:04,VALID,1004.48,VALID,0,VALID,63.9758,VALID,264.578,VALID,29.4895,VALID,40,VALID,2.47773,
2012-07-31, 11:04:04,VALID,1004.55,VALID,0,VALID,62.4882,VALID,256.672,VALID,29.3335,VALID,70,VALID,3.2293,
2012-07-31, 11:05:04,VALID,1004.59,VALID,0,VALID,63.4647,VALID,255.775,VALID,29.2166,VALID,76,VALID,1.9668,
2012-07-31, 11:06:04,VALID,1004.61,VALID,0,VALID,64.7387,VALID,256.916,VALID,29.0823,VALID,94,VALID,2.79688,
2012-07-31, 11:07:04,VALID,1004.63,VALID,0,VALID,65.8525,VALID,255.204,VALID,28.9653,VALID,91,VALID,2.63867,
2012-07-31, 11:08:04,VALID,1004.61,VALID,0,VALID,66.5544,VALID,251.944,VALID,28.8483,VALID,111,VALID,2.69453,
2012-07-31, 11:09:04,VALID,1004.6,VALID,0,VALID,67.7597,VALID,248.847,VALID,28.8288,VALID,88,VALID,1.49531,
2012-07-31, 11:10:04,VALID,1004.62,VALID,0,VALID,67.7673,VALID,249.336,VALID,28.8461,VALID,97,VALID,1.48906,
2012-07-31, 11:11:04,VALID,1004.62,VALID,0,VALID,66.768,VALID,253.411,VALID,28.8072,VALID,73,VALID,1.84023,
2012-07-31, 11:12:04,VALID,1004.61,VALID,0,VALID,67.8436,VALID,259.769,VALID,28.8072,VALID,110,VALID,1.71523,
2012-07-31, 11:13:04,VALID,1004.57,VALID,0,VALID,67.0045,VALID,267.757,VALID,28.7682,VALID,113,VALID,2.64102,
2012-07-31, 11:14:04,VALID,1004.57,VALID,0,VALID,67.5843,VALID,275.337,VALID,28.8072,VALID,102,VALID,1.02422,
2012-07-31, 11:15:04,VALID,1004.57,VALID,0,VALID,66.4475,VALID,279.168,VALID,28.7097,VALID,114,VALID,2.84961,
2012-07-31, 11:16:04,VALID,1004.58,VALID,0,VALID,67.6605,VALID,279.657,VALID,28.6707,VALID,114,VALID,2.27578,
2012-07-31, 11:17:04,VALID,1004.54,VALID,0,VALID,67.6071,VALID,279.576,VALID,28.6295,VALID,99,VALID,2.10156,
2012-07-31, 11:18:04,VALID,1004.53,VALID,0,VALID,68.9269,VALID,280.717,VALID,28.6317,VALID,106,VALID,1.41758,
2012-07-31, 11:19:04,VALID,1004.52,VALID,0,VALID,68.4158,VALID,283.57,VALID,28.6512,VALID,105,VALID,1.69375,
2012-07-31, 11:20:04,VALID,1004.52,VALID,0,VALID,69.85,VALID,288.216,VALID,28.6512,VALID,109,VALID,1.41758,
2012-07-31, 11:21:04,VALID,1004.53,VALID,0,VALID,70.0789,VALID,294.41,VALID,28.5732,VALID,117,VALID,1.48477,
2012-07-31, 11:22:04,VALID,1004.52,VALID,0,VALID,69.9034,VALID,302.48,VALID,28.5732,VALID,108,VALID,1.96211,
2012-07-31, 11:23:04,VALID,1004.5,VALID,0,VALID,69.9492,VALID,313.891,VALID,28.5732,VALID,104,VALID,1.26602,
2012-07-31, 11:24:04,VALID,1004.49,VALID,0,VALID,69.4076,VALID,330.274,VALID,28.5537,VALID,99,VALID,2.3625,
2012-07-31, 11:25:04,VALID,1004.45,VALID,0,VALID,70.735,VALID,352.037,VALID,28.5732,VALID,104,VALID,1.23008,
2012-07-31, 11:26:04,VALID,1004.44,VALID,0,VALID,70.4146,VALID,375.593,VALID,28.6101,VALID,84,VALID,1.75977,
2012-07-31, 11:27:04,VALID,1004.43,VALID,0,VALID,70.6205,VALID,402.41,VALID,28.7487,VALID,79,VALID,1.55469,
2012-07-31, 11:28:04,VALID,1004.41,VALID,0,VALID,71.4674,VALID,423.602,VALID,28.7682,VALID,86,VALID,1.68672,
2012-07-31, 11:29:04,VALID,1004.42,VALID,0,VALID,69.4991,VALID,443.572,VALID,28.8072,VALID,97,VALID,2.0168,
2012-07-31, 11:30:04,VALID,1004.4,VALID,0,VALID,70.5061,VALID,473.241,VALID,28.7898,VALID,136,VALID,1.92422,
2012-07-31, 11:31:04,VALID,1004.41,VALID,0,VALID,70.1018,VALID,488.564,VALID,28.7509,VALID,97,VALID,2.53086,
2012-07-31, 11:32:04,VALID,1004.43,VALID,0,VALID,71.9175,VALID,503.807,VALID,28.7704,VALID,92,VALID,1.45352,
2012-07-31, 11:33:04,VALID,1004.43,VALID,0,VALID,71.208,VALID,520.108,VALID,28.7487,VALID,93,VALID,1.99492,
2012-07-31, 11:34:04,VALID,1004.46,VALID,0,VALID,71.7496,VALID,533.557,VALID,28.7877,VALID,105,VALID,2.55742,
2012-07-31, 11:35:04,VALID,1004.44,VALID,0,VALID,70.2772,VALID,540.893,VALID,28.8288,VALID,121,VALID,2.24141,
2012-07-31, 11:36:04,VALID,1004.46,VALID,0,VALID,69.9263,VALID,551.978,VALID,28.7898,VALID,97,VALID,2.78984,
2012-07-31, 11:37:04,VALID,1004.44,VALID,0,VALID,70.9715,VALID,549.207,VALID,28.7682,VALID,115,VALID,2.52891,
2012-07-31, 11:38:04,VALID,1004.48,VALID,0,VALID,72.749,VALID,479.028,VALID,28.7314,VALID,93,VALID,2.25391,
2012-07-31, 11:39:04,VALID,1004.45,VALID,0,VALID,72.4515,VALID,459.547,VALID,28.8093,VALID,110,VALID,1.5043,
2012-07-31, 11:40:04,VALID,1004.43,VALID,0,VALID,73.4814,VALID,484,VALID,28.8483,VALID,117,VALID,2.23906,
2012-07-31, 11:41:04,VALID,1004.43,VALID,0,VALID,72.6041,VALID,586.864,VALID,28.8656,VALID,113,VALID,2.4625,
2012-07-31, 11:42:04,VALID,1004.42,VALID,0,VALID,73.756,VALID,627.945,VALID,29.0628,VALID,60,VALID,1.11211,
2012-07-31, 11:43:04,VALID,1004.4,VALID,0,VALID,70.0713,VALID,652.723,VALID,29.2533,VALID,17,VALID,1.78594,
2012-07-31, 11:44:04,VALID,1004.36,VALID,0,VALID,68.1793,VALID,695.76,VALID,29.4115,VALID,19,VALID,1.29375,
2012-07-31, 11:45:04,VALID,1004.37,VALID,0,VALID,68.1488,VALID,600.558,VALID,29.5285,VALID,19,VALID,2.7832,
2012-07-31, 11:46:04,VALID,1004.38,VALID,0,VALID,68.103,VALID,681.414,VALID,29.6065,VALID,29,VALID,1.25898,
2012-07-31, 11:47:04,VALID,1004.35,VALID,0,VALID,66.8595,VALID,678.562,VALID,29.7235,VALID,26,VALID,1.89805,
2012-07-31, 11:48:04,VALID,1004.31,VALID,0,VALID,68.1183,VALID,623.299,VALID,29.6455,VALID,43,VALID,1.29805,